Flag Weather past 2 weeks in Pullman, Washington, U.S.A.

Now
47 °F

Fog.


Feels Like: 47 °F
Forecast: 46 / 59 °F
Wind: No wind

Location: Pullman / Moscow Regional Airport

Current Time: Oct 31, 2014 at 8:58:59 AM

Latest Report: Oct 31, 2014 at 7:53 AM


Visibility: 1 mi

Pressure: 29.77 "Hg

Humidity: 97%

Dew point: 46 °F

Location of PullmanLocation

Historic Weather in Pullman — Graph

°F

Pullman temperature yesterday

Maximum temperature yesterday: 59 °F (at 11:53 AM)
Minimum temperature yesterday: 49 °F (at 1:53 AM)
Average temperature yesterday: 54 °F

Past Weeks' High & Low Weather Summary

 TemperatureHumidityPressure
High74 °F (Oct 19, 2:53 PM)97% (Oct 31, 6:53 AM)30.22 "Hg (Oct 31, 6:53 AM)
Low38 °F (Oct 27, 7:53 PM)26% (Oct 20, 11:53 AM)29.56 "Hg (Oct 25, 4:53 PM)
Average51 °F68%29.97 "Hg
* Reported Oct 16 7:53 AM — Oct 31 7:53 AM, Pullman, Weather by CustomWeather, © 2014

Note: Actual official high and low records may vary slightly from our data, if they occured in-between our weather recording intervals... More about our weather records

Advertising

Pullman weather history for previous 24 hours

 ConditionsComfort  
Time TempWeatherWind HumidityBarometerVisibility
7:53 AM
Oct 31
47 °FFog.No wind97%29.77 "Hg1 mi
6:53 AM47 °FFog.3 mph97%29.77 "Hg3 mi
5:53 AM48 °FFog.5 mph93%29.77 "Hg1 mi
4:53 AM48 °FFog.No wind96%29.78 "Hg1 mi
3:53 AM48 °FFog.No wind96%29.78 "Hg3 mi
2:53 AM48 °FFog.8 mph96%29.79 "Hg1 mi
1:53 AM52 °FClear.7 mph75%29.78 "Hg10 mi
12:53 AM54 °FClear.14 mph67%29.77 "Hg10 mi
11:53 PM
Oct 30
55 °FClear.12 mph64%29.78 "Hg10 mi
10:53 PM56 °FClear.15 mph65%29.81 "Hg9 mi
9:53 PM57 °FClear.16 mph62%29.83 "Hg8 mi
8:53 PM56 °FClear.14 mph67%29.85 "Hg8 mi
7:53 PM56 °FClear.13 mph67%29.87 "Hg9 mi
6:53 PM56 °FClear.10 mph67%29.89 "Hg10 mi
5:53 PM58 °FSunny.13 mph60%29.90 "Hg10 mi
4:53 PM58 °FSunny.8 mph60%29.93 "Hg10 mi
3:53 PM59 °FLight rain. Sunny.12 mph54%29.96 "Hg10 mi
2:53 PM59 °FLight rain. Sunny.16 mph56%29.98 "Hg10 mi
1:53 PM58 °FLight rain. Passing clouds.14 mph60%30.01 "Hg10 mi
12:53 PM58 °FLight rain. Overcast.14 mph58%30.04 "Hg10 mi
11:53 AM59 °FLight rain. Partly sunny.18 mph56%30.07 "Hg10 mi
10:53 AM54 °FLight rain. Mostly cloudy.12 mph67%30.10 "Hg10 mi
9:53 AM53 °FPartly sunny.17 mph64%30.11 "Hg10 mi
8:53 AM51 °FMostly cloudy.13 mph69%30.12 "Hg10 mi
Weather by CustomWeather, © 2014

See weather overviewHow to use our weather pages